| time (UTC) | temp C | wind direction | speed KPH | gust KPH | rain 1hr cm | rain 24hr cm | rain mn cm | humidity % | barometer mb |
| 20260506132059 | 12 | 160 | 4.8 | 6.4 | 0.00 | 0.00 | 0.00 | 81 | 1015.2 |
| 20260506131556 | 11 | 97 | 0.0 | 6.4 | 0.00 | 0.00 | 0.00 | 81 | 1015.5 |
| 20260506131052 | 11 | 69 | 3.2 | 6.4 | 0.00 | 0.00 | 0.00 | 82 | 1015.2 |
| 20260506130549 | 11 | 70 | 3.2 | 9.7 | 0.00 | 0.00 | 0.00 | 81 | 1015.0 |
| 20260506130047 | 11 | 48 | 3.2 | 9.7 | 0.00 | 0.00 | 0.00 | 81 | 1015.0 |
| 20260506125545 | 11 | 108 | 3.2 | 9.7 | 0.00 | 0.00 | 0.00 | 81 | 1015.2 |
| 20260506125042 | 11 | 147 | 3.2 | 6.4 | 0.00 | 0.00 | 0.00 | 81 | 1014.7 |
| 20260506124540 | 11 | 158 | 6.4 | 9.7 | 0.00 | 0.00 | 0.00 | 80 | 1014.7 |
| 20260506124038 | 11 | 198 | 0.0 | 6.4 | 0.00 | 0.00 | 0.00 | 81 | 1014.8 |
| 20260506123535 | 11 | 102 | 3.2 | 8.0 | 0.00 | 0.00 | 0.00 | 81 | 1014.9 |
| 20260506123033 | 11 | 122 | 3.2 | 6.4 | 0.00 | 0.00 | 0.00 | 81 | 1014.8 |
| 20260506122529 | 11 | 121 | 6.4 | 8.0 | 0.00 | 0.00 | 0.00 | 80 | 1014.6 |
| 20260506122028 | 12 | 130 | 4.8 | 8.0 | 0.00 | 0.00 | 0.00 | 79 | 1014.6 |
| 20260506121525 | 12 | 131 | 6.4 | 8.0 | 0.00 | 0.00 | 0.00 | 79 | 1014.7 |
| 20260506121021 | 12 | 102 | 6.4 | 9.7 | 0.00 | 0.00 | 0.00 | 79 | 1014.7 |
| 20260506120519 | 12 | 75 | 4.8 | 8.0 | 0.00 | 0.00 | 0.00 | 79 | 1014.9 |
| 20260506120017 | 12 | 154 | 6.4 | 8.0 | 0.00 | 0.00 | 0.00 | 78 | 1014.4 |
| 20260506115514 | 12 | 151 | 4.8 | 9.7 | 0.00 | 0.00 | 0.00 | 77 | 1014.4 |
| 20260506115013 | 12 | 165 | 3.2 | 6.4 | 0.00 | 0.00 | 0.00 | 77 | 1014.3 |
| 20260506114509 | 12 | 139 | 3.2 | 8.0 | 0.00 | 0.00 | 0.00 | 76 | 1014.6 |
| 20260506114008 | 12 | 110 | 4.8 | 12.9 | 0.00 | 0.00 | 0.00 | 77 | 1014.2 |
| 20260506113505 | 12 | 62 | 4.8 | 8.0 | 0.00 | 0.00 | 0.00 | 75 | 1014.1 |
| 20260506113002 | 13 | 111 | 3.2 | 8.0 | 0.00 | 0.00 | 0.00 | 75 | 1014.0 |
| 20260506112459 | 13 | 157 | 6.4 | 11.3 | 0.00 | 0.00 | 0.00 | 74 | 1014.0 |
| 20260506111956 | 13 | 135 | 3.2 | 6.4 | 0.00 | 0.00 | 0.00 | 72 | 1013.6 |
| 20260506111454 | 13 | 123 | 3.2 | 9.7 | 0.00 | 0.00 | 0.00 | 72 | 1013.6 |
| 20260506110951 | 13 | 105 | 3.2 | 9.7 | 0.00 | 0.00 | 0.00 | 72 | 1013.3 |
| 20260506110449 | 13 | 125 | 3.2 | 8.0 | 0.00 | 0.00 | 0.00 | 71 | 1013.6 |
| 20260506105945 | 13 | 159 | 3.2 | 6.4 | 0.00 | 0.00 | 0.00 | 71 | 1013.5 |
| 20260506105442 | 13 | 122 | 3.2 | 6.4 | 0.00 | 0.00 | 0.00 | 71 | 1013.4 |
| 20260506104939 | 13 | 30 | 3.2 | 8.0 | 0.00 | 0.00 | 0.00 | 71 | 1013.3 |
| 20260506104437 | 13 | 142 | 4.8 | 9.7 | 0.00 | 0.00 | 0.00 | 70 | 1013.2 |
| 20260506103935 | 13 | 144 | 6.4 | 9.7 | 0.00 | 0.00 | 0.00 | 70 | 1013.3 |
| 20260506103432 | 13 | 159 | 1.6 | 9.7 | 0.00 | 0.00 | 0.00 | 70 | 1013.2 |
| 20260506102929 | 13 | 89 | 3.2 | 9.7 | 0.00 | 0.00 | 0.00 | 70 | 1013.1 |
| 20260506102427 | 13 | 157 | 4.8 | 9.7 | 0.00 | 0.00 | 0.00 | 70 | 1013.1 |
| 20260506101924 | 13 | 165 | 3.2 | 8.0 | 0.00 | 0.00 | 0.00 | 71 | 1012.9 |
| 20260506101420 | 13 | 163 | 4.8 | 9.7 | 0.00 | 0.00 | 0.00 | 71 | 1012.9 |
| 20260506100918 | 14 | 144 | 4.8 | 8.0 | 0.00 | 0.00 | 0.00 | 71 | 1012.6 |
| 20260506100416 | 14 | 189 | 1.6 | 8.0 | 0.00 | 0.00 | 0.00 | 70 | 1012.7 |
| 20260506095914 | 14 | 148 | 4.8 | 6.4 | 0.00 | 0.00 | 0.00 | 70 | 1012.5 |
| 20260506095412 | 14 | 154 | 4.8 | 6.4 | 0.00 | 0.00 | 0.00 | 70 | 1012.4 |
| 20260506094908 | 14 | 124 | 4.8 | 9.7 | 0.00 | 0.00 | 0.00 | 70 | 1012.4 |
| 20260506094407 | 14 | 144 | 4.8 | 6.4 | 0.00 | 0.00 | 0.00 | 71 | 1012.1 |
| 20260506093904 | 14 | 150 | 3.2 | 8.0 | 0.00 | 0.00 | 0.00 | 70 | 1012.4 |
| 20260506093401 | 14 | 121 | 3.2 | 6.4 | 0.00 | 0.00 | 0.00 | 70 | 1012.4 |
| 20260506092859 | 14 | 146 | 4.8 | 8.0 | 0.00 | 0.00 | 0.00 | 71 | 1012.2 |
| 20260506092357 | 14 | 140 | 4.8 | 6.4 | 0.00 | 0.00 | 0.00 | 71 | 1012.1 |
| 20260506091853 | 14 | 42 | 3.2 | 11.3 | 0.00 | 0.00 | 0.00 | 71 | 1012.2 |
| 20260506091351 | 14 | 130 | 0.0 | 6.4 | 0.00 | 0.00 | 0.00 | 71 | 1012.0 |
| 20260506090848 | 14 | 146 | 3.2 | 6.4 | 0.00 | 0.00 | 0.00 | 71 | 1012.1 |
| 20260506090346 | 14 | 88 | 3.2 | 4.8 | 0.00 | 0.00 | 0.00 | 71 | 1012.0 |
| 20260506085842 | 14 | 173 | 1.6 | 4.8 | 0.00 | 0.00 | 0.00 | 71 | 1012.1 |
| 20260506085338 | 14 | 104 | 0.0 | 6.4 | 0.00 | 0.00 | 0.00 | 71 | 1011.9 |
| 20260506084835 | 15 | 104 | 3.2 | 8.0 | 0.00 | 0.00 | 0.00 | 71 | 1011.8 |
| 20260506084332 | 15 | 142 | 3.2 | 6.4 | 0.00 | 0.00 | 0.00 | 71 | 1011.8 |
| 20260506083829 | 15 | 118 | 3.2 | 6.4 | 0.00 | 0.00 | 0.00 | 71 | 1011.9 |
| 20260506083326 | 15 | 87 | 3.2 | 6.4 | 0.00 | 0.00 | 0.00 | 72 | 1011.6 |
| 20260506082824 | 15 | 149 | 3.2 | 6.4 | 0.00 | 0.00 | 0.00 | 72 | 1011.6 |
| 20260506082320 | 15 | 149 | 8.0 | 8.0 | 0.00 | 0.00 | 0.00 | 72 | 1011.6 |
| 20260506081816 | 15 | 68 | 3.2 | 4.8 | 0.00 | 0.00 | 0.00 | 72 | 1011.8 |
| 20260506081314 | 15 | 20 | 4.8 | 4.8 | 0.00 | 0.00 | 0.00 | 72 | 1011.6 |
| 20260506080812 | 15 | 133 | 3.2 | 6.4 | 0.00 | 0.00 | 0.00 | 72 | 1011.6 |
| 20260506080308 | 15 | 148 | 3.2 | 3.2 | 0.00 | 0.00 | 0.00 | 72 | 1011.7 |
| 20260506073252 | 15 | 150 | 6.4 | 8.0 | 0.00 | 0.00 | 0.00 | 72 | 1011.4 |
| 20260506072749 | 15 | 150 | 6.4 | 8.0 | 0.00 | 0.00 | 0.00 | 72 | 1011.0 |
| 20260506072246 | 15 | 150 | 6.4 | 8.0 | 0.00 | 0.00 | 0.00 | 72 | 1011.0 |
| 20260506071744 | 15 | 150 | 6.4 | 8.0 | 0.00 | 0.00 | 0.00 | 72 | 1010.9 |
| 20260506071242 | 15 | 150 | 6.4 | 8.0 | 0.00 | 0.00 | 0.00 | 72 | 1010.7 |
| 20260506070738 | 15 | 150 | 6.4 | 8.0 | 0.00 | 0.00 | 0.00 | 72 | 1011.1 |
| 20260506070235 | 15 | 138 | 6.4 | 6.4 | 0.00 | 0.00 | 0.00 | 72 | 1011.1 |
| 20260506062212 | 16 | 133 | 3.2 | 8.0 | 0.00 | 0.00 | 0.00 | 72 | 1011.4 |
| 20260506061708 | 16 | 136 | 6.4 | 6.4 | 0.00 | 0.00 | 0.00 | 71 | 1011.1 |
| 20260506061206 | 16 | 145 | 4.8 | 6.4 | 0.00 | 0.00 | 0.00 | 72 | 1011.2 |
| 20260506060704 | 16 | 124 | 1.6 | 6.4 | 0.00 | 0.00 | 0.00 | 72 | 1011.1 |
| 20260506060201 | 16 | 104 | 3.2 | 3.2 | 0.00 | 0.00 | 0.00 | 72 | 1011.1 |
| 20260506051133 | 16 | 146 | 6.4 | 8.0 | 0.00 | 0.00 | 0.00 | 74 | 1011.4 |
| 20260506050631 | 16 | 74 | 8.0 | 8.0 | 0.00 | 0.00 | 0.00 | 73 | 1011.6 |
| 20260506050128 | 16 | 70 | 4.8 | 6.4 | 0.00 | 0.00 | 0.00 | 74 | 1011.5 |
| 20260506045121 | 17 | 60 | 1.6 | 6.4 | 0.00 | 0.00 | 0.00 | 73 | 1011.1 |
| 20260506044619 | 16 | 149 | 3.2 | 6.4 | 0.00 | 0.00 | 0.00 | 74 | 1011.2 |
| 20260506044116 | 17 | 157 | 1.6 | 4.8 | 0.00 | 0.00 | 0.00 | 73 | 1011.2 |
| 20260506043613 | 17 | 157 | 1.6 | 4.8 | 0.00 | 0.00 | 0.00 | 73 | 1011.5 |
| 20260506043111 | 17 | 157 | 1.6 | 4.8 | 0.00 | 0.00 | 0.00 | 73 | 1011.4 |
| 20260506042610 | 17 | 157 | 1.6 | 4.8 | 0.00 | 0.00 | 0.00 | 73 | 1011.2 |
| 20260506042108 | 17 | 157 | 1.6 | 4.8 | 0.00 | 0.00 | 0.00 | 73 | 1011.1 |
| 20260506041606 | 17 | 157 | 1.6 | 4.8 | 0.00 | 0.00 | 0.00 | 73 | 1011.4 |
| 20260506041102 | 17 | 157 | 1.6 | 4.8 | 0.00 | 0.00 | 0.00 | 73 | 1011.1 |
| 20260506040600 | 17 | 171 | 3.2 | 6.4 | 0.00 | 0.00 | 0.00 | 73 | 1011.1 |
| 20260506040056 | 17 | 147 | 4.8 | 8.0 | 0.00 | 0.00 | 0.00 | 72 | 1011.1 |
| 20260506035553 | 18 | 82 | 1.6 | 6.4 | 0.00 | 0.00 | 0.00 | 72 | 1010.9 |
| 20260506035050 | 18 | 188 | 3.2 | 8.0 | 0.00 | 0.00 | 0.00 | 72 | 1010.8 |
| 20260506034547 | 18 | 180 | 3.2 | 6.4 | 0.00 | 0.00 | 0.00 | 72 | 1010.7 |
| 20260506034044 | 18 | 115 | 3.2 | 8.0 | 0.00 | 0.00 | 0.00 | 72 | 1010.6 |
| 20260506033542 | 18 | 154 | 6.4 | 6.4 | 0.00 | 0.00 | 0.00 | 72 | 1010.2 |
| 20260506033038 | 18 | 131 | 3.2 | 4.8 | 0.00 | 0.00 | 0.00 | 72 | 1010.3 |
| 20260506032536 | 18 | 151 | 3.2 | 9.7 | 0.00 | 0.00 | 0.00 | 71 | 1010.1 |
| 20260506032032 | 18 | 130 | 3.2 | 4.8 | 0.00 | 0.00 | 0.00 | 70 | 1010.1 |
| 20260506031530 | 18 | 111 | 1.6 | 4.8 | 0.00 | 0.00 | 0.00 | 70 | 1010.2 |
| 20260506031027 | 19 | 141 | 6.4 | 6.4 | 0.00 | 0.00 | 0.00 | 70 | 1010.0 |
| 20260506030525 | 19 | 122 | 0.0 | 4.8 | 0.00 | 0.00 | 0.00 | 70 | 1009.9 |
| 20260506030022 | 19 | 140 | 4.8 | 6.4 | 0.00 | 0.00 | 0.00 | 69 | 1009.9 |
| 20260506025519 | 20 | 145 | 6.4 | 6.4 | 0.00 | 0.00 | 0.00 | 69 | 1009.7 |
| 20260506025015 | 20 | 158 | 1.6 | 4.8 | 0.00 | 0.00 | 0.00 | 70 | 1009.7 |
| 20260506024512 | 20 | 148 | 4.8 | 8.0 | 0.00 | 0.00 | 0.00 | 69 | 1009.5 |
| 20260506024008 | 20 | 116 | 1.6 | 6.4 | 0.00 | 0.00 | 0.00 | 69 | 1009.3 |
| 20260506023504 | 20 | 71 | 1.6 | 4.8 | 0.00 | 0.00 | 0.00 | 69 | 1009.6 |
| 20260506023002 | 20 | 118 | 3.2 | 4.8 | 0.00 | 0.00 | 0.00 | 68 | 1009.1 |
| 20260506022459 | 20 | 154 | 3.2 | 6.4 | 0.00 | 0.00 | 0.00 | 68 | 1009.2 |
| 20260506021957 | 20 | 75 | 1.6 | 4.8 | 0.00 | 0.00 | 0.00 | 68 | 1009.3 |
| 20260506021454 | 20 | 88 | 0.0 | 4.8 | 0.00 | 0.00 | 0.00 | 68 | 1008.8 |
| 20260506020951 | 20 | 135 | 4.8 | 4.8 | 0.00 | 0.00 | 0.00 | 68 | 1008.7 |
| 20260506020449 | 20 | 95 | 1.6 | 3.2 | 0.00 | 0.00 | 0.00 | 67 | 1008.5 |
| 20260506015946 | 20 | 122 | 1.6 | 4.8 | 0.00 | 0.00 | 0.00 | 67 | 1008.8 |
| 20260506015443 | 20 | 315 | 1.6 | 4.8 | 0.00 | 0.00 | 0.00 | 67 | 1008.7 |
| 20260506014940 | 20 | 78 | 3.2 | 4.8 | 0.00 | 0.00 | 0.00 | 66 | 1008.4 |
| 20260506014437 | 21 | 149 | 3.2 | 8.0 | 0.00 | 0.00 | 0.00 | 66 | 1008.3 |
| 20260506013933 | 21 | 166 | 3.2 | 6.4 | 0.00 | 0.00 | 0.00 | 65 | 1008.1 |
| 20260506013432 | 21 | 131 | 3.2 | 8.0 | 0.00 | 0.00 | 0.00 | 65 | 1008.4 |
| 20260506012927 | 21 | 149 | 1.6 | 8.0 | 0.00 | 0.00 | 0.00 | 65 | 1008.2 |
| 20260506012424 | 21 | 145 | 3.2 | 6.4 | 0.00 | 0.00 | 0.00 | 65 | 1007.6 |
| 20260506011921 | 21 | 120 | 3.2 | 6.4 | 0.00 | 0.00 | 0.00 | 65 | 1008.0 |
| 20260506011418 | 22 | 157 | 3.2 | 3.2 | 0.00 | 0.00 | 0.00 | 65 | 1008.1 |
| 20260506010915 | 22 | 156 | 3.2 | 8.0 | 0.00 | 0.00 | 0.00 | 64 | 1007.7 |
| 20260506010414 | 22 | 138 | 1.6 | 6.4 | 0.00 | 0.00 | 0.00 | 64 | 1007.2 |
| 20260506005909 | 22 | 161 | 3.2 | 6.4 | 0.00 | 0.00 | 0.00 | 63 | 1007.4 |
| 20260506005408 | 22 | 269 | 0.0 | 3.2 | 0.00 | 0.00 | 0.00 | 64 | 1007.2 |
| 20260506004903 | 22 | 160 | 3.2 | 6.4 | 0.00 | 0.00 | 0.00 | 64 | 1007.2 |
| 20260506004401 | 22 | 139 | 3.2 | 4.8 | 0.00 | 0.00 | 0.00 | 63 | 1007.4 |
| 20260506003857 | 22 | 157 | 3.2 | 4.8 | 0.00 | 0.00 | 0.00 | 63 | 1007.1 |
| 20260506003353 | 23 | 93 | 0.0 | 6.4 | 0.00 | 0.00 | 0.00 | 63 | 1006.6 |
| 20260506002850 | 23 | 140 | 4.8 | 6.4 | 0.00 | 0.00 | 0.00 | 63 | 1006.3 |
| 20260506002346 | 23 | 306 | 0.0 | 4.8 | 0.00 | 0.00 | 0.00 | 62 | 1006.7 |
| 20260506001842 | 23 | 163 | 3.2 | 8.0 | 0.00 | 0.00 | 0.00 | 62 | 1006.9 |
| 20260506001339 | 24 | 111 | 3.2 | 6.4 | 0.00 | 0.00 | 0.00 | 61 | 1006.6 |
| 20260506000836 | 24 | 326 | 3.2 | 3.2 | 0.00 | 0.00 | 0.00 | 61 | 1006.6 |
| 20260506000334 | 25 | 148 | 0.0 | 4.8 | 0.00 | 0.00 | 0.00 | 60 | 1006.5 |
| 20260505235830 | 25 | 300 | 0.0 | 4.8 | 0.00 | 0.00 | 0.00 | 59 | 1006.5 |
| 20260505235328 | 25 | 154 | 3.2 | 4.8 | 0.00 | 0.00 | 0.00 | 59 | 1006.6 |
| 20260505234824 | 25 | 74 | 3.2 | 6.4 | 0.00 | 0.00 | 0.00 | 59 | 1006.3 |
| 20260505234322 | 25 | 147 | 1.6 | 3.2 | 0.00 | 0.00 | 0.00 | 59 | 1006.5 |
| 20260505233819 | 26 | 149 | 3.2 | 8.0 | 0.00 | 0.00 | 0.00 | 58 | 1006.3 |
| 20260505233317 | 26 | 252 | 0.0 | 6.4 | 0.00 | 0.00 | 0.00 | 56 | 1006.2 |
| 20260505232814 | 26 | 222 | 0.0 | 6.4 | 0.00 | 0.00 | 0.00 | 56 | 1006.1 |
| 20260505232311 | 26 | 329 | 1.6 | 4.8 | 0.00 | 0.00 | 0.00 | 55 | 1006.1 |
| 20260505231808 | 26 | 53 | 0.0 | 8.0 | 0.00 | 0.00 | 0.00 | 55 | 1006.4 |
| 20260505231306 | 27 | 190 | 0.0 | 8.0 | 0.00 | 0.00 | 0.00 | 56 | 1006.3 |
| 20260505230804 | 27 | 240 | 1.6 | 4.8 | 0.00 | 0.00 | 0.00 | 54 | 1005.8 |
| 20260505230301 | 27 | 329 | 4.8 | 8.0 | 0.00 | 0.00 | 0.00 | 53 | 1006.1 |
| 20260505225757 | 28 | 145 | 1.6 | 4.8 | 0.00 | 0.00 | 0.00 | 53 | 1006.1 |
| 20260505225255 | 28 | 159 | 0.0 | 3.2 | 0.00 | 0.00 | 0.00 | 52 | 1005.9 |
| 20260505224749 | 28 | 34 | 4.8 | 8.0 | 0.00 | 0.00 | 0.00 | 50 | 1005.6 |
| 20260505224247 | 29 | 126 | 0.0 | 6.4 | 0.00 | 0.00 | 0.00 | 51 | 1005.5 |
| 20260505223745 | 29 | 159 | 0.0 | 4.8 | 0.00 | 0.00 | 0.00 | 51 | 1005.5 |
| 20260505223241 | 29 | 195 | 3.2 | 3.2 | 0.00 | 0.00 | 0.00 | 51 | 1005.6 |
| 20260505222737 | 30 | 263 | 0.0 | 6.4 | 0.00 | 0.00 | 0.00 | 50 | 1005.4 |
| 20260505222233 | 30 | 215 | 1.6 | 3.2 | 0.00 | 0.00 | 0.00 | 50 | 1005.3 |
| 20260505221731 | 30 | 57 | 0.0 | 3.2 | 0.00 | 0.00 | 0.00 | 49 | 1005.3 |
| 20260505221227 | 30 | 166 | 3.2 | 3.2 | 0.00 | 0.00 | 0.00 | 48 | 1005.0 |
| 20260505220724 | 31 | 281 | 3.2 | 6.4 | 0.00 | 0.00 | 0.00 | 46 | 1005.0 |
| 20260505220222 | 31 | 205 | 0.0 | 4.8 | 0.00 | 0.00 | 0.00 | 45 | 1005.0 |
| 20260505215720 | 31 | 272 | 1.6 | 4.8 | 0.00 | 0.00 | 0.00 | 42 | 1005.0 |
| 20260505215217 | 31 | 200 | 3.2 | 3.2 | 0.00 | 0.00 | 0.00 | 41 | 1004.7 |
| 20260505214715 | 32 | 241 | 3.2 | 4.8 | 0.00 | 0.00 | 0.00 | 40 | 1005.1 |
| 20260505214212 | 32 | 295 | 1.6 | 4.8 | 0.00 | 0.00 | 0.00 | 40 | 1005.2 |
| 20260505213709 | 32 | 172 | 3.2 | 3.2 | 0.00 | 0.00 | 0.00 | 40 | 1005.2 |
| 20260505213206 | 33 | 204 | 0.0 | 4.8 | 0.00 | 0.00 | 0.00 | 38 | 1005.2 |
| 20260505212702 | 32 | 155 | 0.0 | 4.8 | 0.00 | 0.00 | 0.00 | 41 | 1005.0 |
| 20260505212200 | 32 | 257 | 4.8 | 4.8 | 0.00 | 0.00 | 0.00 | 41 | 1005.0 |
| 20260505211656 | 33 | 263 | 3.2 | 6.4 | 0.00 | 0.00 | 0.00 | 39 | 1005.0 |
| 20260505211154 | 33 | 318 | 3.2 | 6.4 | 0.00 | 0.00 | 0.00 | 40 | 1005.0 |
| 20260505210650 | 35 | 353 | 3.2 | 6.4 | 0.00 | 0.00 | 0.00 | 38 | 1005.2 |
| 20260505210147 | 34 | 275 | 0.0 | 4.8 | 0.00 | 0.00 | 0.00 | 42 | 1005.0 |
| 20260505205644 | 34 | 44 | 0.0 | 4.8 | 0.00 | 0.00 | 0.00 | 42 | 1004.9 |
| 20260505205143 | 35 | 273 | 3.2 | 4.8 | 0.00 | 0.00 | 0.00 | 41 | 1005.1 |
| 20260505204639 | 35 | 334 | 1.6 | 4.8 | 0.00 | 0.00 | 0.00 | 42 | 1005.2 |
| 20260505204137 | 35 | 117 | 3.2 | 8.0 | 0.00 | 0.00 | 0.00 | 40 | 1005.3 |
| 20260505203634 | 35 | 278 | 1.6 | 6.4 | 0.00 | 0.00 | 0.00 | 42 | 1005.3 |
| 20260505203131 | 34 | 349 | 4.8 | 6.4 | 0.00 | 0.00 | 0.00 | 42 | 1005.2 |
| 20260505202626 | 34 | 273 | 4.8 | 4.8 | 0.00 | 0.00 | 0.00 | 43 | 1005.3 |
| 20260505202122 | 34 | 330 | 3.2 | 6.4 | 0.00 | 0.00 | 0.00 | 42 | 1005.3 |
| 20260505201619 | 34 | 91 | 3.2 | 8.0 | 0.00 | 0.00 | 0.00 | 41 | 1005.2 |
| 20260505201117 | 34 | 25 | 4.8 | 8.0 | 0.00 | 0.00 | 0.00 | 44 | 1005.5 |
| 20260505200615 | 34 | 269 | 1.6 | 8.0 | 0.00 | 0.00 | 0.00 | 45 | 1005.5 |
| 20260505200111 | 34 | 0 | 3.2 | 4.8 | 0.00 | 0.00 | 0.00 | 45 | 1005.5 |
| 20260505195608 | 33 | 317 | 3.2 | 6.4 | 0.00 | 0.00 | 0.00 | 47 | 1005.6 |
| 20260505195105 | 34 | 350 | 3.2 | 9.7 | 0.00 | 0.00 | 0.00 | 46 | 1005.6 |
| 20260505194602 | 33 | 307 | 1.6 | 6.4 | 0.00 | 0.00 | 0.00 | 49 | 1005.6 |
| 20260505194058 | 33 | 321 | 0.0 | 6.4 | 0.00 | 0.00 | 0.00 | 49 | 1005.8 |
| 20260505193555 | 32 | 7 | 4.8 | 8.0 | 0.00 | 0.00 | 0.00 | 47 | 1005.6 |
| 20260505193052 | 32 | 346 | 3.2 | 8.0 | 0.00 | 0.00 | 0.00 | 48 | 1005.9 |
| 20260505192551 | 33 | 10 | 3.2 | 6.4 | 0.00 | 0.00 | 0.00 | 48 | 1005.8 |
| 20260505192048 | 32 | 327 | 1.6 | 9.7 | 0.00 | 0.00 | 0.00 | 50 | 1005.9 |
| 20260505191546 | 32 | 338 | 4.8 | 8.0 | 0.00 | 0.00 | 0.00 | 50 | 1005.4 |
| 20260505191043 | 32 | 338 | 3.2 | 4.8 | 0.00 | 0.00 | 0.00 | 52 | 1005.6 |
| 20260505190538 | 32 | 22 | 1.6 | 9.7 | 0.00 | 0.00 | 0.00 | 52 | 1005.6 |
| 20260505190034 | 31 | 8 | 4.8 | 6.4 | 0.00 | 0.00 | 0.00 | 52 | 1005.6 |
| 20260505185531 | 31 | 326 | 3.2 | 3.2 | 0.00 | 0.00 | 0.00 | 56 | 1005.6 |
| 20260505185027 | 31 | 325 | 1.6 | 6.4 | 0.00 | 0.00 | 0.00 | 54 | 1005.4 |
| 20260505184524 | 31 | 355 | 4.8 | 6.4 | 0.00 | 0.00 | 0.00 | 55 | 1005.5 |
| 20260505184021 | 30 | 28 | 4.8 | 6.4 | 0.00 | 0.00 | 0.00 | 56 | 1005.4 |
| 20260505183518 | 30 | 25 | 3.2 | 3.2 | 0.00 | 0.00 | 0.00 | 58 | 1005.8 |
| 20260505183015 | 30 | 22 | 4.8 | 6.4 | 0.00 | 0.00 | 0.00 | 57 | 1005.4 |
| 20260505182512 | 30 | 10 | 4.8 | 4.8 | 0.00 | 0.00 | 0.00 | 56 | 1006.1 |
| 20260505182008 | 30 | 5 | 4.8 | 9.7 | 0.00 | 0.00 | 0.00 | 57 | 1005.9 |
| 20260505181505 | 30 | 324 | 3.2 | 6.4 | 0.00 | 0.00 | 0.00 | 57 | 1005.9 |
| 20260505181002 | 30 | 341 | 3.2 | 6.4 | 0.00 | 0.00 | 0.00 | 59 | 1005.5 |
| 20260505180458 | 30 | 354 | 3.2 | 6.4 | 0.00 | 0.00 | 0.00 | 59 | 1006.0 |
| 20260505175955 | 30 | 353 | 3.2 | 8.0 | 0.00 | 0.00 | 0.00 | 58 | 1006.0 |
| 20260505175451 | 30 | 350 | 1.6 | 6.4 | 0.00 | 0.00 | 0.00 | 59 | 1006.0 |
| 20260505174948 | 30 | 355 | 3.2 | 8.0 | 0.00 | 0.00 | 0.00 | 57 | 1006.0 |
| 20260505174445 | 30 | 64 | 3.2 | 9.7 | 0.00 | 0.00 | 0.00 | 58 | 1005.9 |
| 20260505173941 | 30 | 1 | 1.6 | 6.4 | 0.00 | 0.00 | 0.00 | 59 | 1005.9 |
| 20260505173438 | 30 | 351 | 3.2 | 6.4 | 0.00 | 0.00 | 0.00 | 60 | 1005.8 |
| 20260505172935 | 30 | 3 | 1.6 | 6.4 | 0.00 | 0.00 | 0.00 | 61 | 1006.0 |
| 20260505172433 | 29 | 41 | 8.0 | 8.0 | 0.00 | 0.00 | 0.00 | 61 | 1005.8 |
| 20260505171932 | 28 | 119 | 0.0 | 4.8 | 0.00 | 0.00 | 0.00 | 63 | 1005.8 |
| 20260505171430 | 28 | 349 | 3.2 | 6.4 | 0.00 | 0.00 | 0.00 | 62 | 1006.0 |
| 20260505170926 | 28 | 347 | 3.2 | 4.8 | 0.00 | 0.00 | 0.00 | 62 | 1005.9 |
| 20260505170423 | 28 | 42 | 1.6 | 6.4 | 0.00 | 0.00 | 0.00 | 63 | 1005.9 |
| 20260505165918 | 28 | 16 | 0.0 | 4.8 | 0.00 | 0.00 | 0.00 | 62 | 1005.9 |
| 20260505165414 | 28 | 353 | 3.2 | 6.4 | 0.00 | 0.00 | 0.00 | 63 | 1006.0 |
| 20260505164909 | 28 | 343 | 3.2 | 6.4 | 0.00 | 0.00 | 0.00 | 64 | 1006.1 |
| 20260505164407 | 27 | 153 | 1.6 | 6.4 | 0.00 | 0.00 | 0.00 | 65 | 1006.1 |
| 20260505163905 | 27 | 357 | 3.2 | 6.4 | 0.00 | 0.00 | 0.00 | 66 | 1005.9 |
| 20260505163404 | 27 | 10 | 6.4 | 6.4 | 0.00 | 0.00 | 0.00 | 66 | 1006.0 |
| 20260505162902 | 27 | 49 | 0.0 | 8.0 | 0.00 | 0.00 | 0.00 | 66 | 1005.8 |
| 20260505162357 | 27 | 10 | 3.2 | 8.0 | 0.00 | 0.00 | 0.00 | 66 | 1005.6 |
| 20260505161854 | 27 | 354 | 3.2 | 6.4 | 0.00 | 0.00 | 0.00 | 67 | 1005.9 |
| 20260505161351 | 27 | 16 | 3.2 | 6.4 | 0.00 | 0.00 | 0.00 | 67 | 1005.9 |
| 20260505160849 | 26 | 119 | 3.2 | 6.4 | 0.00 | 0.00 | 0.00 | 68 | 1005.8 |
| 20260505160347 | 26 | 349 | 3.2 | 6.4 | 0.00 | 0.00 | 0.00 | 68 | 1005.8 |
| 20260505153326 | 25 | 44 | 1.6 | 4.8 | 0.00 | 0.00 | 0.00 | 72 | 1005.8 |
| 20260505152823 | 25 | 127 | 3.2 | 4.8 | 0.00 | 0.00 | 0.00 | 72 | 1005.6 |
| 20260505152320 | 25 | 338 | 3.2 | 6.4 | 0.00 | 0.00 | 0.00 | 71 | 1005.4 |
| 20260505151820 | 25 | 339 | 3.2 | 6.4 | 0.00 | 0.00 | 0.00 | 72 | 1005.5 |
| 20260505151317 | 25 | 92 | 3.2 | 4.8 | 0.00 | 0.00 | 0.00 | 73 | 1005.4 |
| 20260505150813 | 25 | 327 | 3.2 | 9.7 | 0.00 | 0.00 | 0.00 | 72 | 1005.4 |
| 20260505150310 | 25 | 338 | 1.6 | 4.8 | 0.00 | 0.00 | 0.00 | 73 | 1005.5 |
| 20260505140235 | 23 | 29 | 6.4 | 6.4 | 0.00 | 0.00 | 0.00 | 78 | 1005.2 |